Santa Barbara, CA

6:20 AM PDT on June 18, 2018 (GMT -0700)
Santa Barbara Municipal

Weather History for KSBA - August, 2003

Change the Weather History Date:

Saturday, August 16, 2003

  Actual Average Record
Temperature  
Mean Temperature 68 °F 66 °F  
Max Temperature 78 °F 74 °F 84 °F (1962)
Min Temperature 57 °F 58 °F 50 °F (1986)
Degree Days  
Heating Degree Days 0 1  
Month to date heating degree days 16  
Since 1 June heating degree days 133  
Since 1 July heating degree days 43  
Cooling Degree Days 2 2  
Month to date cooling degree days 32  
Year to date cooling degree days 104  
Since 1 June cooling degree days 90  
Growing Degree Days 18 (Base 50)    
Moisture  
Dew Point 58 °F    
Average Humidity 76    
Maximum Humidity 93    
Minimum Humidity 48    
Precipitation  
Precipitation 0.00 in 0.00 in 0.00 in (2018)
Month to date precipitation 0.05  
Year to date precipitation 12.13  
Sea Level Pressure  
Sea Level Pressure 29.96 in    
Wind  
Wind Speed 3 mph (SE)    
Max Wind Speed 10 mph    
Max Gust Speed -    
Visibility 9 miles    
Events      
T = Trace of Precipitation, MM = Missing Value Source: NWS Daily Summary

Daily Weather History Graph

Daily Weather History Graph

Search for Another Location

Airport or City:

Astronomy

Aug. 16, 2003 Rise Set
Actual Time 6:20 AM PDT 7:45 PM PDT
Civil Twilight 5:54 AM PDT 8:12 PM PDT
Nautical Twilight 5:22 AM PDT 8:44 PM PDT
Astronomical Twilight 4:49 AM PDT 9:17 PM PDT
Moon 10:31 PM PDT (8/16) 10:40 AM PDT (8/16)
Length of Visible Light 14h 18m
Length of Day
13h 25m
Waning Gibbous, 79% of the Moon is Illuminated
Aug 16
Waning Gibbous
Aug 19
Last Quarter
Aug 27
New
Sep 3
First Quarter
Sep 10
Full

Hourly Weather History & Observations

Time (PDT) Temp. Dew Point Humidity Pressure Visibility Wind Dir Wind Speed Gust Speed Precip Events Conditions
12:53 AM 64.0 °F 57.9 °F 80% 29.98 in 6.0 mi Calm Calm - N/A   Haze
1:53 AM 64.0 °F 57.0 °F 78% 29.98 in 10.0 mi East 5.8 mph - N/A   Clear
2:53 AM 62.1 °F 57.0 °F 84% 29.99 in 10.0 mi ESE 3.5 mph - N/A   Clear
3:53 AM 60.1 °F 55.9 °F 86% 29.98 in 10.0 mi Calm Calm - N/A   Clear
4:53 AM 59.0 °F 55.0 °F 87% 29.97 in 10.0 mi Calm Calm - N/A   Clear
5:53 AM 57.9 °F 55.0 °F 90% 29.98 in 8.0 mi Calm Calm - N/A   Clear
6:53 AM 60.1 °F 55.9 °F 86% 30.00 in 9.0 mi Calm Calm - N/A   Clear
7:53 AM 64.9 °F 59.0 °F 81% 30.01 in 9.0 mi Calm Calm - N/A   Clear
8:53 AM 69.1 °F 61.0 °F 75% 30.02 in 8.0 mi Variable 4.6 mph - N/A   Clear
9:53 AM 71.1 °F 60.1 °F 68% 30.02 in 10.0 mi SSW 5.8 mph - N/A   Clear
10:53 AM 73.0 °F 59.0 °F 61% 30.01 in 10.0 mi SSW 5.8 mph - N/A   Clear
11:53 AM 75.0 °F 57.9 °F 55% 30.01 in 10.0 mi Variable 6.9 mph - N/A   Clear
12:53 PM 78.1 °F 57.0 °F 48% 30.00 in 10.0 mi SW 8.1 mph - N/A   Clear
1:53 PM 75.9 °F 55.9 °F 50% 29.99 in 10.0 mi SW 8.1 mph - N/A   Clear
2:53 PM 70.0 °F 59.0 °F 68% 29.97 in 10.0 mi SE 10.4 mph - N/A   Clear
3:53 PM 69.1 °F 57.0 °F 65% 29.95 in 10.0 mi ESE 6.9 mph - N/A   Clear
4:53 PM 68.0 °F 57.9 °F 70% 29.93 in 10.0 mi SE 6.9 mph - N/A   Clear
5:53 PM 66.0 °F 57.0 °F 73% 29.91 in 10.0 mi SE 6.9 mph - N/A   Clear
6:53 PM 66.0 °F 57.0 °F 73% 29.90 in 10.0 mi ESE 5.8 mph - N/A   Clear
7:53 PM 63.0 °F 57.9 °F 84% 29.89 in 9.0 mi ESE 5.8 mph - N/A   Clear
8:53 PM 62.1 °F 59.0 °F 90% 29.90 in 8.0 mi ESE 4.6 mph - N/A   Clear
9:53 PM 61.0 °F 59.0 °F 93% 29.91 in 8.0 mi SSE 3.5 mph - N/A   Clear
10:53 PM 61.0 °F 57.9 °F 90% 29.91 in 7.0 mi Calm Calm - N/A   Clear
11:53 PM 59.0 °F 55.9 °F 90% 29.91 in 8.0 mi Calm Calm - N/A   Clear